�������r�C�����j�^�v���󋵏��
Date,Time,5�C6���@���p�r�C��,����,����(m/s)
2021/05/08,00:00,4.0,��쐼,5.6
2021/05/08,00:10,3.8,��,7.0
2021/05/08,00:20,3.9,��쐼,6.6
2021/05/08,00:30,3.9,��,4.9
2021/05/08,00:40,3.9,��쐼,4.4
2021/05/08,00:50,3.9,��쐼,3.7
2021/05/08,01:00,3.9,��쐼,3.9
2021/05/08,01:10,4.1,��쐼,3.2
2021/05/08,01:20,3.8,�쐼,3.3
2021/05/08,01:30,3.6,��쐼,2.0
2021/05/08,01:40,3.9,��쐼,2.6
2021/05/08,01:50,3.9,�쐼,3.3
2021/05/08,02:00,3.8,���쐼,3.0
2021/05/08,02:10,4.0,���쐼,3.3
2021/05/08,02:20,3.8,��,2.5
2021/05/08,02:30,4.1,���k��,2.0
2021/05/08,02:40,3.7,���k��,1.2
2021/05/08,02:50,4.1,�k��,1.4
2021/05/08,03:00,4.0,�k��,0.6
2021/05/08,03:10,3.9,���k��,1.7
2021/05/08,03:20,3.9,���k��,1.1
2021/05/08,03:30,4.0,�k��,1.5
2021/05/08,03:40,4.1,��,2.0
2021/05/08,03:50,4.1,���k��,3.4
2021/05/08,04:00,4.0,���k��,5.1
2021/05/08,04:10,4.0,���k��,5.2
2021/05/08,04:20,3.9,���k��,5.1
2021/05/08,04:30,3.9,��,6.5
2021/05/08,04:40,3.9,���k��,8.4
2021/05/08,04:50,4.0,��,8.6
2021/05/08,05:00,3.9,��,6.4
2021/05/08,05:10,4.1,��,5.8
2021/05/08,05:20,4.2,��,5.1
2021/05/08,05:30,3.8,��,5.7
2021/05/08,05:40,4.0,���쐼,4.9
2021/05/08,05:50,3.9,���쐼,4.5
2021/05/08,06:00,3.9,���쐼,4.3
2021/05/08,06:10,3.8,�쐼,5.6
2021/05/08,06:20,4.1,���쐼,4.9
2021/05/08,06:30,3.8,��,3.3
2021/05/08,06:40,3.9,���쐼,4.3
2021/05/08,06:50,3.9,���쐼,3.5
2021/05/08,07:00,3.8,���쐼,4.2
2021/05/08,07:10,3.9,��쐼,4.5
2021/05/08,07:20,3.8,��쐼,3.2
2021/05/08,07:30,4.0,�쐼,4.7
2021/05/08,07:40,3.9,�쐼,3.4
2021/05/08,07:50,3.8,��쐼,3.4
2021/05/08,08:00,4.1,��,4.1
2021/05/08,08:10,4.0,�쐼,4.1
2021/05/08,08:20,3.8,�쐼,4.5
2021/05/08,08:30,3.9,���쐼,6.8
2021/05/08,08:40,4.1,��,8.1
2021/05/08,08:50,3.9,��,10.2
2021/05/08,09:00,3.9,��,11.6
2021/05/08,09:10,3.9,��,7.4
2021/05/08,09:20,3.9,��,3.7
2021/05/08,09:30,3.9,��,6.4
2021/05/08,09:40,4.0,���쐼,7.7
2021/05/08,09:50,3.9,��,6.5
2021/05/08,10:00,4.0,��,8.7
2021/05/08,10:10,3.9,��,8.0
2021/05/08,10:20,3.9,��,5.6
2021/05/08,10:30,3.8,���쐼,4.3
2021/05/08,10:40,4.1,��,5.5
2021/05/08,10:50,3.9,���k��,5.0
2021/05/08,11:00,4.0,��,5.7
2021/05/08,11:10,4.0,��,6.3
2021/05/08,11:20,3.9,��,6.5
2021/05/08,11:30,3.9,���k��,7.5
2021/05/08,11:40,3.9,��,6.9
2021/05/08,11:50,3.9,���k��,7.3
2021/05/08,12:00,3.9,��,6.7
2021/05/08,12:10,3.9,���쐼,5.8
2021/05/08,12:20,3.9,��,7.0
2021/05/08,12:30,3.8,���k��,5.6
2021/05/08,12:40,4.0,���k��,2.3
2021/05/08,12:50,3.9,��,4.3
2021/05/08,13:00,4.0,��,7.3
2021/05/08,13:10,4.0,��,8.5
2021/05/08,13:20,3.9,��쓌,11.6
2021/05/08,13:30,4.0,��쓌,9.5
2021/05/08,13:40,3.9,��,10.2
2021/05/08,13:50,3.9,��,11.0
2021/05/08,14:00,3.9,��쓌,10.8
2021/05/08,14:10,3.9,��,11.3
2021/05/08,14:20,3.9,��,9.9
2021/05/08,14:30,3.7,��,9.9
2021/05/08,14:40,3.9,��,10.5
2021/05/08,14:50,4.0,��,8.5
2021/05/08,15:00,3.9,��쓌,9.9
2021/05/08,15:10,3.8,��,8.9
2021/05/08,15:20,4.1,��,8.3
2021/05/08,15:30,3.9,��쓌,10.9
2021/05/08,15:40,3.9,��쓌,13.1
2021/05/08,15:50,4.0,��,9.8
2021/05/08,16:00,3.9,��,9.5
2021/05/08,16:10,3.8,��,8.2
2021/05/08,16:20,4.0,��,7.9
2021/05/08,16:30,4.0,��,6.5
2021/05/08,16:40,3.9,��,7.7
2021/05/08,16:50,3.9,��쓌,8.5
2021/05/08,17:00,3.9,��,9.1
2021/05/08,17:10,3.8,��쓌,9.2
2021/05/08,17:20,3.9,��쓌,9.7
2021/05/08,17:30,3.9,��,8.7
2021/05/08,17:40,3.9,��,7.6
2021/05/08,17:50,3.9,��,7.5
2021/05/08,18:00,3.8,��,6.7
2021/05/08,18:10,3.8,��,5.4
2021/05/08,18:20,3.9,��,6.7
2021/05/08,18:30,3.8,��,5.9
2021/05/08,18:40,3.8,��,6.3
2021/05/08,18:50,4.0,��,6.1
2021/05/08,19:00,4.1,��,6.3
2021/05/08,19:10,3.9,��쓌,7.1
2021/05/08,19:20,3.9,��쓌,8.1
2021/05/08,19:30,4.0,��,6.5
2021/05/08,19:40,4.1,��쓌,8.0
2021/05/08,19:50,3.9,��쓌,6.7
2021/05/08,20:00,3.9,��,6.2
2021/05/08,20:10,3.8,��,4.5
2021/05/08,20:20,3.9,��쐼,3.4
2021/05/08,20:30,4.1,��쐼,2.6
2021/05/08,20:40,3.8,��쓌,3.9
2021/05/08,20:50,4.0,��쓌,4.7
2021/05/08,21:00,3.9,��쓌,4.3
2021/05/08,21:10,4.0,��,3.6
2021/05/08,21:20,3.9,��,5.4
2021/05/08,21:30,3.9,��,5.6
2021/05/08,21:40,4.1,��,5.4
2021/05/08,21:50,3.8,��,5.1
2021/05/08,22:00,4.0,��,5.0
2021/05/08,22:10,3.9,��,3.2
2021/05/08,22:20,4.0,��,3.5
2021/05/08,22:30,3.8,��,2.0
2021/05/08,22:40,3.8,��쓌,2.6
2021/05/08,22:50,3.9,��쐼,1.2
2021/05/08,23:00,3.9,�쐼,1.1
2021/05/08,23:10,4.2,��,1.7
2021/05/08,23:20,3.9,���k��,2.9
2021/05/08,23:30,3.8,�k��,2.6
2021/05/08,23:40,4.0,���k��,1.5
2021/05/08,23:50,3.8,���k��,1.5
